Regional Weather Roundup
Issued by NWS Upton, NY

Current Version | Previous Version | Text Only | Print | Product List | Glossary On
Versions: 1 2 3 4 5 6 7 8 9 10 11 12 13 14 15 16 17 18 19 20 21 22 23 24 25 26 27 28 29 30 31 32 33 34 35 36 37 38 39 40 41 42 43 44 45 46 47 48 49 50
000 ASUS41 KOKX 160005 RWROKX REGIONAL WEATHER ROUNDUP NATIONAL WEATHER SERVICE NEW YORK NY 800 PM EDT MON SEP 15 2014 NOTE: "FAIR" INDICATES FEW OR NO CLOUDS BELOW 12,000 FEET WITH NO SIGNIFICANT WEATHER AND/OR OBSTRUCTIONS TO VISIBILITY. NYZ071-072-176-178-NJZ106-104-160100- NEW YORK CITY METRO AREA CITY SKY/WX TMP DP RH WIND PRES REMARKS CENTRAL PARK PTCLDY 65 48 54 CALM 30.14R LAGUARDIA APRT MOCLDY 66 47 50 S8 30.11R KENNEDY INTL MOCLDY 65 49 56 S9 30.13R NEWARK/LIBERTY MOCLDY 65 49 56 S8 30.11S BRNX BOT. GARD N/A 63 46 55 SE1 30.13R TETERBORO PTCLDY 65 48 54 S6 30.10R $$ NYZ177-179-078>081-160100- LONG ISLAND NEW YORK CITY SKY/WX TMP DP RH WIND PRES REMARKS FARMINGDALE PTCLDY 63 49 60 S5 30.13R ISLIP MOCLDY 63 48 58 S3 30.11S SHIRLEY PTCLDY 57 47 69 CALM 30.13S WESTHAMPTON CLEAR 53 45 74 S3 30.14S MONTAUK POINT N/A 61 51 70 CALM 30.14S $$ NYZ052-065-067-160100- HUDSON VALLEY CITY SKY/WX TMP DP RH WIND PRES REMARKS WHITE PLAINS PTCLDY 58 48 69 CALM 30.11R NEWBURGH NOT AVBL MONTGOMERY PTCLDY 55 49 80 CALM 30.11S POUGHKEEPSIE MOCLDY 59 49 69 SE3 30.09S ALBANY CLOUDY 59 43 55 CALM 30.12S $$ NJZ001-105-106-008-010-013-015-019>022-104-160100- NEW JERSEY CITY SKY/WX TMP DP RH WIND PRES REMARKS NEWARK/LIBERTY MOCLDY 65 49 56 S8 30.11S TETERBORO PTCLDY 65 48 54 S6 30.10R CALDWELL PTCLDY 63 47 55 CALM 30.11S MORRISTOWN MOCLDY 57 50 77 CALM 30.11F SOMERVILLE MOCLDY 57 49 74 CALM 30.09S LINDEN FAIR 69 52 56 S6 30.13R SUSSEX PTCLDY 59 50 72 CALM 30.11S ANDOVER N/A 56 50 80 CALM 30.11F TRENTON PTCLDY 64 47 53 SW3 30.12R MILLVILLE CLEAR 57 53 86 CALM 30.12F ATLANTIC CITY CLEAR 58 54 86 SE3 30.13S WRIGHTSTOWN PTCLDY 60 54 79 VRB6 30.10S TOMS RIVER CLEAR 55 52 88 CALM 30.14R BELMAR PTCLDY 61 48 63 S3 30.13R $$ PAZ047>061-062-071-160100- EASTERN PENNSYLVANIA CITY SKY/WX TMP DP RH WIND PRES REMARKS PHILADELPHIA MOCLDY 67 51 56 S7 30.12S ALLENTOWN PTCLDY 61 49 64 CALM 30.11S SCRANTON PTCLDY 60 45 57 CALM 30.08F $$ CTZ002-004>006-009-010-012-RIZ004-006-007-MAZ004-011-015-160100- SOUTHERN NEW ENGLAND IN CT CITY SKY/WX TMP DP RH WIND PRES REMARKS BRADLEY INTL MOCLDY 57 48 72 CALM 30.12R HARTFORD CLEAR 63 42 46 SW9 30.12R DANBURY PTCLDY 55 50 83 CALM 30.13R WTRBRY/OXFORD MOCLDY 54 43 66 CALM 30.13S BRIDGEPORT CLEAR 65 47 52 N5 30.12R MERIDEN CLEAR 55 47 74 CALM 30.13R NEW HAVEN MOCLDY 59 46 62 CALM 30.13R CHESTER FAIR 57 50 77 CALM 30.13S GROTON CLEAR 56 48 74 CALM 30.12R WILLIMANTIC CLEAR 56 49 77 CALM 30.14R IN RI CITY SKY/WX TMP DP RH WIND PRES REMARKS PROVIDENCE PTCLDY 59 49 69 SW3 30.12S BLOCK ISLAND CLEAR 59 46 63 SW6 30.13R WESTERLY CLEAR 57 48 72 CALM 30.13R IN MA CITY SKY/WX TMP DP RH WIND PRES REMARKS BOSTON PTCLDY 58 47 66 SE9 30.14R WORCESTER CLEAR 54 41 61 W6 30.14R WESTFIELD PTCLDY 55 50 83 CALM 30.12R PROVINCETOWN MOCLDY 54 46 76 CALM 30.15R NANTUCKET MOCLDY 59 50 72 E7 30.13F $$ ANZ330-335-338-340-345-350-353-355-160100- COASTAL MARINE OBSERVATIONS STATION/POSITION TIME SKY/WX TEMP WIND PRES VSBY WAVE AIR SEA DIR/SP/G HT/PER (UTC) (F) (DEG/KT/KT) (MB) (MI) (FT/S) NY HARB ENTRANCE NOT AVBL 4S FIRE IS NOT AVBL 23SW MTP 0000 N/A 1/ 8 HUDSON CANYON 0000 65 74 30/ 8/ 10 1020.1 2/ 7 EXECUTION ROCKS 0000 66 71 190/ 10/ 12 N/A WESTERN LI SOUND 0000 66 170/ 10/ 12 N/A 0 CENTRAL LI SOUND 0000 66 71 260/ 4/ 6 N/A 1 EASTERN LI SOUND 2300 65 68 260/ 8/ 12 N/A ROBBINS REEF 0000 65 190/ 13/ 15 1018.4 $$ >>>>>>>>>>>>>>>>>>>>>>>>>>>> KEY <<<<<<<<<<<<<<<<<<<<<<<<<<< > < > SKY/WX - SKY CONDITION/PRESENT WEATHER < > TMP - TEMPERATURE IN FAHRENHEIT < > DP - DEWPOINT IN FAHRENHEIT < > RH - RELATIVE HUMIDITY IN PERCENT < > WIND - DIRECTION AND SPEED IN MPH < > PRES - MEAN SEA LEVEL PRESSURE IN INCHES OF HG < > WCI - WIND CHILL INDEX < > VSB - VISIBILITY IN MILES < > HX - HEAT INDEX < > TC - TEMPERATURE IN CELSIUS < > VRB - VARIABLE WIND DIRECTION < > < >>>>>>>>>>>>>>>>>>>>>>>>>>>> KEY <<<<<<<<<<<<<<<<<<<<<<<<<<<

USA.gov is the U.S. government's official web portal to all federal, state and local government web resources and services.